This demonstration page uses our WeatherBlox Daily Observations layout. Learn more.

Left ArrowRight Arrow

30.21309, -93.2044

Hourly Observations for May 2, 2022

Temp ( °F °C ) Dew Point ( °F °C ) Humidity (%) Winds ( mph kmh ) Pressure ( in mb ) Visibility ( mi km ) Precip ( " mm )
12:15 am 00:15 Clear 70 21.3 68 19.8 91 91 SSE 9 15 29.95 1014 10 16 0.00 0.00
12:35 am 00:35 Clear 71 21.6 69 20.3 92 92 SSE 10 17 29.95 1014 10 16 0.00 0.00
12:55 am 00:55 Clear 71 21.4 69 20.3 93 93 SSE 7 11 29.96 1015 10 16 0.00 0.00
1:15 am 01:15 Clear 71 21.6 69 20.6 94 94 S 9 15 29.94 1014 7 11 0.00 0.00
1:35 am 01:35 Clear with Mist and Fog 70 21.2 69 20.3 95 95 S 7 11 29.93 1014 5 8 0.00 0.00
1:55 am 01:55 Clear with Mist and Fog 71 21.6 69 20.8 95 95 S 9 15 29.92 1013 5 8 0.00 0.00
2:15 am 02:15 Clear with Mist and Fog 71 21.9 70 21 95 95 S 9 15 29.93 1014 7 11 0.00 0.00
2:35 am 02:35 Partly Cloudy with Mist and Fog 71 21.8 69 20.7 94 94 S 5 7 29.94 1014 7 11 0.00 0.00
2:55 am 02:55 Mostly Cloudy with Mist and Fog 71 21.4 69 20.4 94 94 Calm 29.94 1014 4 6 0.00 0.00
3:15 am 03:15 Cloudy with Mist and Fog 71 21.9 70 21 95 95 E 3 6 29.95 1014 5 8 0.00 0.00
3:35 am 03:35 Cloudy with Mist and Fog 71 21.7 69 20.7 94 94 Calm 29.95 1014 4 6 0.00 0.00
3:55 am 03:55 Cloudy with Mist and Fog 70 21.3 69 20.4 95 95 ESE 3 6 29.95 1014 3 4 0.00 0.00
4:15 am 04:15 Cloudy with Mist and Fog 70 21.2 69 20.3 95 95 SE 5 7 29.95 1014 3 5 0.00 0.00
4:35 am 04:35 Cloudy with Mist and Fog 70 21.2 69 20.4 95 95 Calm 29.96 1015 2 3 0.00 0.00
4:55 am 04:55 Cloudy with Mist and Fog 71 21.4 69 20.7 96 96 ENE 5 7 29.97 1015 3 4 0.00 0.00
5:15 am 05:15 Cloudy with Mist and Fog 71 21.7 70 20.9 95 95 ESE 5 7 29.98 1015 3 5 0.00 0.00
5:35 am 05:35 Cloudy with Mist and Fog 71 21.7 69 20.8 95 95 SE 3 6 29.99 1016 4 6 0.00 0.00
6:00 am 06:00 Partly Cloudy 70 21 70 21 100 100 Calm 29.99 1016 7 11 0.00 0.00
6:55 am 06:55 Partly Cloudy with Mist and Fog 70 21 70 21 100 100 Calm 30.01 1016 6 10 0.00 0.00
7:55 am 07:55 Mostly Sunny 73 23 72 22 94 94 SSE 12 19 29.99 1016 7 11 0.00 0.00
8:53 am 08:53 Mostly Cloudy 75 24 72 22 89 89 SSE 14 22 30.01 1016 7 11 0.00 0.00
9:55 am 09:55 Mostly Cloudy 77 25 70 21 79 79 SSE 14 22 30.00 1016 7 11 0.00 0.00
10:46 am 10:46 Mostly Cloudy 77 25 70 21 79 79 SE 13 20 30.00 1016 10 16 0.00 0.00
11:50 am 11:50 Mostly Cloudy 79 26 70 21 74 74 SSE 15 24 29.98 1015 10 16 0.00 0.00
12:55 pm 12:55 Mostly Cloudy 81 27 70 21 70 70 SSE 15 24 29.98 1015 10 16 0.00 0.00
1:45 pm 13:45 Mostly Cloudy 82 28 68 20 62 62 SSE 16 26 29.97 1015 10 16 0.00 0.00
2:50 pm 14:50 Mostly Sunny 84 29 66 19 55 55 S 16 26 29.95 1014 10 16 0.00 0.00
3:55 pm 15:55 Partly Cloudy 84 29 66 19 55 55 S 17 28 29.94 1014 10 16 0.00 0.00
4:47 pm 16:47 Partly Cloudy 84 29 66 19 55 55 S 18 30 29.93 1014 10 16 0.00 0.00
5:50 pm 17:50 Mostly Cloudy 82 28 66 19 58 58 S 17 28 29.92 1013 10 16 0.00 0.00
6:47 pm 18:47 Partly Cloudy 81 27 68 20 66 66 S 15 24 29.91 1013 10 16 0.00 0.00
7:55 pm 19:55 Partly Cloudy 75 24 68 20 78 78 SSE 10 17 29.92 1013 10 16 0.00 0.00
8:50 pm 20:50 Cloudy 75 24 70 21 83 83 S 9 15 29.93 1014 10 16 0.00 0.00
9:55 pm 21:55 Cloudy 73 23 70 21 89 89 SSE 10 17 29.93 1014 10 16 0.00 0.00
10:15 pm 22:15 Cloudy 73 23 70 20.9 88 88 SSE 8 13 29.93 1014 10 16 0.00 0.00
10:35 pm 22:35 Mostly Cloudy 73 22.5 70 20.9 91 91 SSE 8 13 29.93 1014 10 16 0.00 0.00
10:55 pm 22:55 Cloudy 73 23 70 21.1 89 89 SSE 9 15 29.93 1014 10 16 0.00 0.00
11:15 pm 23:15 Cloudy 73 22.9 70 21 89 89 SSE 9 15 29.93 1014 10 16 0.00 0.00
11:35 pm 23:35 Mostly Cloudy 73 22.6 69 20.8 90 90 S 8 13 29.93 1014 10 16 0.00 0.00
11:55 pm 23:55 Mostly Cloudy 73 22.5 69 20.8 90 90 S 7 11 29.93 1014 10 16 0.00 0.00

Powered by AerisWeather